Weather History for Ramona, CA

Change the Weather History Date:

Sunday, November 18, 2012

  Actual Average Record
Temperature  
Mean Temperature 58 °F 55 °F  
Max Temperature 70 °F 70 °F 88 °F (2008)
Min Temperature 46 °F 39 °F 28 °F (2000)
Degree Days  
Heating Degree Days 7 10  
Month to date heating degree days 140 143  
Since 1 July heating degree days 220 262  
Cooling Degree Days 0 0  
Month to date cooling degree days 3 4  
Year to date cooling degree days 1035 848  
Growing Degree Days 6 (Base 50)    
Moisture  
Dew Point 48 °F    
Average Humidity 77    
Maximum Humidity 100    
Minimum Humidity 53    
Precipitation  
Precipitation 0.00 in 0.04 in 1.01 in (1986)
Month to date precipitation 0.40 0.74  
Year to date precipitation 8.22 13.36  
Since 1 July precipitation 1.30 2.03  
Snow  
Snow 0.00 in - - ()
Month to date snowfall 0.0  
Year to date snowfall 0.0  
Since 1 July snowfall 0.0  
Snow Depth 0.00 in    
Sea Level Pressure  
Sea Level Pressure 30.13 in    
Wind  
Wind Speed 3 mph (West)    
Max Wind Speed 14 mph    
Max Gust Speed 17 mph    
Visibility 4 miles    
Events Fog    
T = Trace of Precipitation, MM = Missing Value Source: NWS Daily Summary

Daily Weather History Graph

Daily Weather History Graph

Search for Another Location

Airport:

Trip Planner

Search our weather history database for the weather conditions in past years. The results will help you decide how hot, cold, wet, or windy it might be!

Date:

Astronomy

Nov. 18, 2012 Rise Set
Actual Time 6:21 AM PST 4:44 PM PST
Civil Twilight 5:55 AM PST 5:10 PM PST
Nautical Twilight 5:25 AM PST 5:40 PM PST
Astronomical Twilight 4:55 AM PST 6:09 PM PST
Moon 10:54 AM PST (11/18) 10:04 PM PST (11/18)
Length of Visible Light 11h 15m
Length of Day
10h 22m
Waxing Crescent, 31% of the Moon is Illuminated
Nov 18
Waxing Crescent
Nov 20
First Quarter
Nov 28
Full
Dec 6
Last Quarter
Dec 13
New

Hourly Weather History & Observations

Time (PST) Temp. Dew Point Humidity Pressure Visibility Wind Dir Wind Speed Gust Speed Precip Events Conditions
12:09 AM 51.8 °F 51.8 °F 100% 30.11 in 9.0 mi Calm Calm - N/A   Overcast
12:43 AM 51.8 °F 50.0 °F 94% 30.11 in 1.5 mi SE 3.5 mph - N/A   Partly Cloudy
12:45 AM 50.0 °F 50.0 °F 100% 30.11 in 0.8 mi Calm Calm - N/A   Mist
12:53 AM 48.9 °F 48.0 °F 97% 30.09 in 0.5 mi Calm Calm - N/A Fog Fog
1:04 AM 51.8 °F 50.0 °F 94% 30.11 in 1.5 mi Calm Calm - N/A   Scattered Clouds
1:06 AM 50.0 °F 50.0 °F 100% 30.11 in 4.0 mi Calm Calm - N/A   Scattered Clouds
1:13 AM 46.4 °F 46.4 °F 100% 30.11 in 1.8 mi Calm Calm - N/A   Scattered Clouds
1:18 AM 48.2 °F 48.2 °F 100% 30.11 in 0.8 mi Calm Calm - N/A   Mist
1:28 AM 46.4 °F 46.4 °F 100% 30.11 in 0.2 mi Calm Calm - N/A Fog Fog
1:36 AM 48.2 °F 46.4 °F 93% 30.11 in 0.2 mi Calm Calm - N/A Fog Fog
1:53 AM 46.9 °F 46.9 °F 100% 30.08 in 0.2 mi Calm Calm - N/A Fog Fog
2:10 AM 46.4 °F 46.4 °F 100% 30.10 in 0.5 mi Calm Calm - N/A Fog Fog
2:18 AM 46.4 °F 46.4 °F 100% 30.10 in 1.2 mi Calm Calm - N/A   Overcast
2:25 AM 46.4 °F 46.4 °F 100% 30.10 in 2.0 mi Calm Calm - N/A   Overcast
2:31 AM 46.4 °F 46.4 °F 100% 30.09 in 1.0 mi Calm Calm - N/A   Overcast
2:39 AM 48.2 °F 48.2 °F 100% 30.09 in 0.5 mi Calm Calm - N/A Fog Fog
2:43 AM 48.2 °F 48.2 °F 100% 30.10 in 1.0 mi Calm Calm - N/A   Overcast
2:47 AM 48.2 °F 48.2 °F 100% 30.09 in 2.0 mi Calm Calm - N/A   Overcast
2:53 AM 48.9 °F 48.0 °F 97% 30.08 in 6.0 mi Calm Calm - N/A   Overcast
3:53 AM 50.0 °F 48.9 °F 96% 30.07 in 6.0 mi East 3.5 mph - N/A   Overcast
4:53 AM 50.0 °F 50.0 °F 100% 30.08 in 8.0 mi Calm Calm - N/A   Overcast
5:53 AM 51.1 °F 50.0 °F 96% 30.09 in 8.0 mi Calm Calm - N/A   Overcast
6:53 AM 52.0 °F 51.1 °F 97% 30.10 in 6.0 mi Calm Calm - N/A   Overcast
7:16 AM 53.6 °F 51.8 °F 94% 30.12 in 8.0 mi Calm Calm - N/A   Overcast
7:53 AM 55.9 °F 53.1 °F 90% 30.12 in 10.0 mi Calm Calm - N/A   Mostly Cloudy
8:53 AM 60.1 °F 54.0 °F 80% 30.12 in 10.0 mi Calm Calm - N/A   Overcast
9:53 AM 61.0 °F 53.1 °F 75% 30.14 in 10.0 mi NW 5.8 mph - N/A   Mostly Cloudy
10:53 AM 66.0 °F 52.0 °F 60% 30.12 in 10.0 mi West 6.9 mph - N/A   Mostly Cloudy
11:53 AM 66.9 °F 51.1 °F 57% 30.10 in 10.0 mi WNW 8.1 mph - N/A   Mostly Cloudy
12:53 PM 68.0 °F 50.0 °F 52% 30.09 in 10.0 mi West 8.1 mph - N/A   Scattered Clouds
1:53 PM 66.9 °F 53.1 °F 61% 30.09 in 10.0 mi West 9.2 mph - N/A   Scattered Clouds
2:53 PM 64.9 °F 53.1 °F 65% 30.09 in 10.0 mi West 12.7 mph - N/A   Clear
3:53 PM 61.0 °F 54.0 °F 78% 30.10 in 10.0 mi West 12.7 mph - N/A   Scattered Clouds
4:53 PM 55.9 °F 52.0 °F 87% 30.11 in 10.0 mi West 6.9 mph - N/A   Clear
5:32 PM 53.6 °F 51.8 °F 94% 30.14 in 10.0 mi Calm Calm - N/A   Mostly Cloudy
5:53 PM 52.0 °F 50.0 °F 93% 30.14 in 10.0 mi WNW 3.5 mph - N/A   Mostly Cloudy
6:11 PM 53.6 °F 51.8 °F 94% 30.16 in 10.0 mi Calm Calm - N/A   Mostly Cloudy
6:38 PM 53.6 °F 51.8 °F 94% 30.16 in 10.0 mi Calm Calm - N/A   Mostly Cloudy
6:53 PM 52.0 °F 50.0 °F 93% 30.15 in 10.0 mi Calm Calm - N/A   Scattered Clouds
7:53 PM 48.0 °F 46.9 °F 96% 30.17 in 9.0 mi Calm Calm - N/A   Clear
8:22 PM 48.2 °F 48.2 °F 100% 30.18 in 2.5 mi Calm Calm - N/A   Clear
8:29 PM 48.2 °F 46.4 °F 93% 30.18 in 7.0 mi Calm Calm - N/A   Clear
8:43 PM 44.6 °F 44.6 °F 100% 30.18 in 1.5 mi Calm Calm - N/A   Partly Cloudy
8:46 PM 46.4 °F 44.6 °F 93% 30.18 in 0.8 mi Calm Calm - N/A   Mist
8:53 PM 45.0 °F 44.1 °F 97% 30.17 in 0.5 mi Calm Calm - N/A Fog Fog
9:05 PM 46.4 °F 46.4 °F 100% 30.18 in 0.2 mi Calm Calm - N/A Fog Fog
9:33 PM 46.4 °F 46.4 °F 100% 30.18 in 1.0 mi Calm Calm - N/A   Mist
9:36 PM 44.6 °F 44.6 °F 100% 30.18 in 2.5 mi Calm Calm - N/A   Overcast
9:42 PM 44.6 °F 44.6 °F 100% 30.18 in 1.0 mi Calm Calm - N/A   Mist
9:50 PM 45.0 °F 45.0 °F 100% 30.17 in 0.2 mi Calm Calm - N/A Fog Fog
10:15 PM 44.6 °F 44.6 °F 100% 30.18 in 0.5 mi Calm Calm - N/A Fog Fog
10:23 PM 46.4 °F 46.4 °F 100% 30.18 in 0.2 mi Calm Calm - N/A Fog Fog
10:34 PM 46.4 °F 46.4 °F 100% 30.18 in 1.0 mi Calm Calm - N/A   Mist
10:36 PM 46.4 °F 46.4 °F 100% 30.18 in 3.0 mi Calm Calm - N/A   Mostly Cloudy
10:46 PM 44.6 °F 44.6 °F 100% 30.18 in 1.5 mi Calm Calm - N/A   Mostly Cloudy
10:49 PM 44.6 °F 44.6 °F 100% 30.19 in 0.8 mi Calm Calm - N/A   Mist
10:53 PM 44.1 °F 44.1 °F 100% 30.17 in 0.5 mi Calm Calm - N/A Fog Fog
10:58 PM 44.6 °F 44.6 °F 100% 30.19 in 0.2 mi Calm Calm - N/A Fog Fog
11:19 PM 44.6 °F 42.8 °F 93% 30.19 in 0.5 mi Calm Calm - N/A Fog Fog
11:31 PM 44.6 °F 44.6 °F 100% 30.18 in 0.2 mi Calm Calm - N/A Fog Fog
11:53 PM 44.1 °F 43.0 °F 96% 30.17 in 0.2 mi Calm Calm - N/A Fog Fog